Regional Weather Roundup
Issued by NWS Green Bay, WI

Home | Current Version | Previous Version | Text Only | Print | Product List | Glossary On
Versions: 1 2 3 4 5 6 7 8 9 10 11 12 13 14 15 16 17 18 19 20 21 22 23 24 25 26 27 28 29 30 31 32 33 34 35 36 37 38 39 40 41 42 43 44 45 46 47 48 49 50
000
ASUS43 KGRB 262000
RWRGRB

NORTH-CENTRAL AND NORTHEAST WISCONSIN REGIONAL WEATHER ROUNDUP
NATIONAL WEATHER SERVICE GREEN BAY WI
300 PM CDT THU MAY 26 2016

WIZ005-009-010>012-018-019-262100-
NORTH CENTRAL WISCONSIN

CITY           SKY/WX    TMP DP  RH WIND       PRES   REMARKS
IRONWOOD       PTSUNNY   66  64  94 W6        29.78S
MANITOWISH WTR NOT AVBL
ARBOR VITAE    NOT AVBL
EAGLE RIVER    NOT AVBL
LAND O LAKES   NOT AVBL
RHINELANDER    PTSUNNY   70  59  68 CALM      29.84F
PHILLIPS       NOT AVBL
ANTIGO         NOT AVBL
TOMAHAWK       NOT AVBL
MERRILL        NOT AVBL
$$

WIZ013-073-262100-
NORTHEAST WISCONSIN

CITY           SKY/WX    TMP DP  RH WIND       PRES   REMARKS
IRON MOUNTAIN  PTSUNNY   67  61  81 N13       29.82R
MARINETTE        N/A     72  66  83 SW5       29.80
$$

WIZ017-030-035>037-045-262100-
CENTRAL WISCONSIN

CITY           SKY/WX    TMP DP  RH WIND       PRES   REMARKS
MEDFORD        NOT AVBL
WAUSAU         FAIR      77  59  53 SW14      29.83R
MOSINEE        PTSUNNY   73  63  68 W15G21    29.86R
MARSHFIELD     FAIR      77  56  48 W15G21    29.85R
WISC RAPIDS    FAIR      80  54  40 W14       29.85R
STEVENS POINT  NOT AVBL
WAUPACA        NOT AVBL
SHAWANO        NOT AVBL
CLINTONVILLE   NOT AVBL
WAUTOMA        FAIR      81  59  47 W15G22    29.84R
$$

WIZ038-039-048-051-262100-
FOX VALLEY

CITY           SKY/WX    TMP DP  RH WIND       PRES   REMARKS
NWS GREEN BAY  FAIR      79  62  56 W15       29.82R
APPLETON       MOSUNNY   77  57  50 W14G22    29.82R
OSHKOSH        FAIR      79  59  50 W8        29.83R
FOND DU LAC    FAIR      82  58  43 W13G21    29.83S
$$

WIZ022-050-052-262100-
EAST CENTRAL WISCONSIN

CITY           SKY/WX    TMP DP  RH WIND       PRES   REMARKS
EPHRAIM        NOT AVBL
STURGEON BAY   NOT AVBL
MANITOWOC      NOT AVBL
SHEBOYGAN      FAIR      82  61  48 SW18      29.83R
$$

LMZ563-521-522-541>543-262100-
LAKESHORE

STATION/POSITION TIME  TEMP    WIND        PRES    VSBY  WAVE
                       AIR SEA DIR/SP/G                  HT/PER
                 (UTC) (F)     (DEG/KT/KT) (MB)    (MI)  (FT/S)
SHEBOYGAN LKSHOR 1900   57     170/ 21/ 23 1010.1F
KEWAUNEE LKSHORE 1900   56     170/ 13/ 17 1008.7F
ALGOMA MARINA    1902          220/  7/  8   N/A
NORTHPORT PIER   1900   53     160/  9/ 14 1009.8R
N MID LAKE BUOY  1850   49 45  200/ 12/ 16 1009.8S         1/ 3
CHAMBERS ISLAND  1900   61     310/  7/  8 1009.5R
MENOMINEE LKSHOR 1900   61     330/  9/ 10 1008.3R
$$




USA.gov is the U.S. government's official web portal to all federal, state and local government web resources and services.